This demonstration page uses our WeatherBlox Daily Observations layout. Learn more.

Left ArrowRight Arrow

39.92423, -83.80882

Hourly Observations for June 16, 2018

Temp ( °F °C ) Dew Point ( °F °C ) Humidity (%) Winds ( mph kmh ) Pressure ( in mb ) Visibility ( mi km ) Precip ( " mm )
12:56 am 00:56 Clear 72 22.2 61 16.1 68 68 S 5 7 30.01 1016 10 16 N/A
1:56 am 01:56 Clear 65 18.3 61 16.1 87 87 E 3 6 30.04 1017 10 16 N/A
2:56 am 02:56 Clear 65 18.3 62 16.7 90 90 SE 5 7 30.03 1017 10 16 N/A
3:56 am 03:56 Clear 64 17.8 61 16.1 90 90 SSE 6 9 30.01 1016 10 16 N/A
4:56 am 04:56 Clear 68 20 60 15.6 76 76 S 5 7 30.01 1016 10 16 N/A
5:56 am 05:56 Clear 67 19.4 60 15.6 79 79 N N/A 30.04 1017 10 16 N/A
6:56 am 06:56 Sunny 65 18.3 61 16.1 87 87 SSE 3 6 30.06 1018 10 16 N/A
7:53 am 07:53 Hazy 72 22 63 17 73 73 S 3 6 30.06 1018 1 1 N/A
7:56 am 07:56 Hazy 71 21.7 63 17.2 76 76 SSW 3 6 30.06 1018 1 1 N/A
8:03 am 08:03 Hazy 72 22 63 17 73 73 SSW 6 9 30.06 1018 1 2 N/A
8:14 am 08:14 Sunny 72 22 63 17 73 73 SSW 5 7 30.06 1018 10 16 N/A
8:56 am 08:56 Sunny 74 23.3 63 17.2 69 69 SW 8 13 30.06 1018 10 16 N/A
9:56 am 09:56 Sunny 77 25 64 17.8 64 64 VRB 5 7 30.05 1018 10 16 N/A
10:56 am 10:56 Sunny 81 27.2 66 18.9 61 61 WSW 8 13 30.03 1017 10 16 N/A
11:56 am 11:56 Sunny 83 28.3 68 20 61 61 SSW 5 7 30.04 1017 10 16 N/A
12:56 pm 12:56 Sunny 85 29.4 69 20.6 59 59 SW 9 15 30.03 1017 10 16 N/A
1:56 pm 13:56 Sunny 86 30 70 21.1 59 59 WSW 9 15 30.03 1017 10 16 N/A
2:56 pm 14:56 Sunny 86 30 70 21.1 59 59 W 5 7 30.03 1017 10 16 N/A
3:56 pm 15:56 Sunny 86 30 71 21.7 61 61 SW 7 11 30.02 1017 10 16 N/A
4:17 pm 16:17 Partly Cloudy with Nearby Thunderstorms 86 30 72 22 62 62 SW 5 7 29.97 1015 10 16 N/A
4:35 pm 16:35 Partly Cloudy with Nearby Thunderstorms 84 29 72 22 66 66 W 5 7 29.97 1015 10 16 N/A
4:43 pm 16:43 Sunny 84 29 72 22 66 66 WNW 7 11 29.97 1015 10 16 N/A
4:56 pm 16:56 Sunny 85 29.4 72 22.2 65 65 WNW 6 9 30.01 1016 10 16 N/A
5:56 pm 17:56 Sunny 80 26.7 67 19.4 64 64 WSW 5 7 30.02 1017 10 16 N/A
6:56 pm 18:56 Sunny 78 25.6 67 19.4 69 69 SSW 6 9 30.01 1016 10 16 N/A
7:56 pm 19:56 Sunny 77 25 65 18.3 66 66 SW 5 7 30.00 1016 10 16 N/A
8:56 pm 20:56 Sunny 75 23.9 65 18.3 71 71 N N/A 30.01 1016 10 16 N/A
9:56 pm 21:56 Clear 73 22.8 66 18.9 79 79 N N/A 30.04 1017 10 16 N/A
10:56 pm 22:56 Clear 72 22.2 67 19.4 84 84 N N/A 30.05 1018 10 16 N/A

Powered by AerisWeather